Laramie, WY

2:31 PM MDT on October 21, 2017 (GMT -0600)
Laramie Regional

Weather History for KLAR - October, 2011

Change the Weather History Date:

Thursday, October 27, 2011

  Actual Average Record
Temperature  
Mean Temperature 9 °F 38 °F  
Max Temperature 33 °F 51 °F 73 °F (2016)
Min Temperature -16 °F 25 °F -16 °F (2011)
Degree Days  
Heating Degree Days 56 27  
Month to date heating degree days 561 604  
Since 1 July heating degree days 914 1129  
Cooling Degree Days 0 0  
Month to date cooling degree days 0 0  
Year to date cooling degree days 126 67  
Moisture  
Dew Point 3 °F    
Average Humidity 77    
Maximum Humidity 100    
Minimum Humidity 53    
Precipitation  
Precipitation 0.00 in 0.03 in 0.18 in (2009)
Month to date precipitation 0.73 0.72  
Year to date precipitation 9.37 9.98  
Sea Level Pressure  
Sea Level Pressure 30.25 in    
Wind  
Wind Speed 6 mph (SSW)    
Max Wind Speed 18 mph    
Max Gust Speed 23 mph    
Visibility 7 miles    
Events Fog    
T = Trace of Precipitation, MM = Missing Value Source: NWS Daily Summary

Daily Weather History Graph

Daily Weather History Graph

Search for Another Location

Airport or City:

Trip Planner

Search our weather history database for the weather conditions in past years. The results will help you decide how hot, cold, wet, or windy it might be!

Date:

Astronomy

Oct. 27, 2011 Rise Set
Actual Time 7:27 AM MDT 6:04 PM MDT
Civil Twilight 6:59 AM MDT 6:32 PM MDT
Nautical Twilight 6:27 AM MDT 7:05 PM MDT
Astronomical Twilight 5:55 AM MDT 7:37 PM MDT
Moon 8:35 AM MDT (10/27) 6:34 PM MDT (10/27)
Length of Visible Light 11h 33m
Length of Day
10h 36m
New Moon, 1% of the Moon is Illuminated
Oct 27
New Moon
Nov 2
First Quarter
Nov 10
Full
Nov 18
Last Quarter
Nov 24
New

Hourly Weather History & Observations

Time (MDT) Temp. Windchill Dew Point Humidity Pressure Visibility Wind Dir Wind Speed Gust Speed Precip Events Conditions
12:14 AM -0.4 °F -14.7 °F -2.2 °F 92% 30.12 in 1.0 mi South 8.1 mph - N/A   Mist
12:22 AM -2.2 °F -14.2 °F -4.0 °F 92% 30.12 in 0.5 mi South 5.8 mph - N/A Fog Light Freezing Fog
12:30 AM -5.8 °F -14.5 °F -7.6 °F 92% 30.12 in 1.0 mi South 3.5 mph - N/A   Mist
12:34 AM -5.8 °F -14.5 °F -7.6 °F 92% 30.12 in 2.0 mi South 3.5 mph - N/A   Scattered Clouds
12:45 AM -4.0 °F -12.4 °F -5.8 °F 92% 30.12 in 3.0 mi South 3.5 mph - N/A   Scattered Clouds
12:53 AM -4.0 °F -17.8 °F -5.8 °F 92% 30.12 in 1.8 mi SSE 6.9 mph - N/A   Scattered Clouds
1:02 AM -0.4 °F -14.7 °F -4.0 °F 85% 30.12 in 1.0 mi SSE 8.1 mph - N/A   Mist
1:09 AM -0.4 °F -13.4 °F -2.2 °F 92% 30.12 in 0.8 mi SSE 6.9 mph - N/A   Mist
1:15 AM 1.4 °F -11.3 °F -0.4 °F 92% 30.11 in 1.2 mi SSE 6.9 mph - N/A   Scattered Clouds
1:20 AM 1.4 °F -14.5 °F -0.4 °F 92% 30.11 in 3.0 mi SSE 10.4 mph - N/A   Partly Cloudy
1:32 AM -0.4 °F -17.6 °F -0.4 °F 100% 30.11 in 2.0 mi SSE 11.5 mph - N/A   Clear
1:41 AM 1.4 °F -15.3 °F -0.4 °F 92% 30.11 in 9.0 mi SSE 11.5 mph - N/A   Clear
1:53 AM 1.9 °F -11.8 °F -0.9 °F 88% 30.31 in 10.0 mi SSE 8.1 mph - N/A   Clear
2:53 AM -7.1 °F - -9.0 °F 91% 30.37 in 10.0 mi Calm Calm - N/A   Clear
3:53 AM -0.0 °F -14.2 °F -4.0 °F 83% 30.33 in 10.0 mi SSE 8.1 mph - N/A   Clear
4:53 AM 1.0 °F -14.0 °F -0.9 °F 91% 30.32 in 10.0 mi SE 9.2 mph - N/A   Clear
5:53 AM -7.1 °F -18.1 °F -8.0 °F 96% 30.38 in 10.0 mi SSW 4.6 mph - N/A   Clear
6:05 AM -14.8 °F - -16.6 °F 92% 30.08 in 9.0 mi Calm Calm - N/A   Partly Cloudy
6:53 AM -15.0 °F -29.3 °F -18.9 °F 82% 30.45 in 10.0 mi WSW 5.8 mph - N/A   Clear
7:53 AM 7.0 °F -3.3 °F 3.0 °F 84% 30.35 in 10.0 mi SW 5.8 mph - N/A   Clear
8:53 AM 5.0 °F -5.6 °F 1.9 °F 87% 30.40 in 10.0 mi WSW 5.8 mph - N/A   Clear
9:53 AM 15.1 °F 4.2 °F 12.0 °F 88% 30.37 in 10.0 mi WSW 8.1 mph - N/A   Mostly Cloudy
10:53 AM 19.0 °F 13.9 °F 15.1 °F 85% 30.33 in 10.0 mi West 3.5 mph - N/A   Overcast
11:53 AM 25.0 °F 18.1 °F 14.0 °F 63% 30.35 in 10.0 mi NNE 5.8 mph - N/A   Clear
12:53 PM 27.0 °F - 16.0 °F 63% 30.32 in 10.0 mi Calm Calm - N/A   Mostly Cloudy
1:53 PM 30.0 °F - 16.0 °F 56% 30.26 in 10.0 mi Calm Calm - N/A   Clear
2:53 PM 28.9 °F 25.2 °F 18.0 °F 64% 30.30 in 10.0 mi ESE 3.5 mph - N/A   Clear
3:53 PM 30.9 °F - 16.0 °F 54% 30.24 in 10.0 mi Calm Calm - N/A   Clear
4:53 PM 30.2 °F - 17.6 °F 60% 30.07 in 10.0 mi Calm Calm - N/A   Clear
5:53 PM 27.0 °F - 15.1 °F 61% 30.33 in 10.0 mi Calm Calm - N/A   Clear
6:53 PM 12.0 °F 1.5 °F 9.0 °F 88% 30.49 in 10.0 mi WSW 6.9 mph - N/A   Clear
7:53 PM 10.0 °F -1.9 °F 7.0 °F 87% 30.38 in 10.0 mi SW 8.1 mph - N/A   Clear
8:53 PM 19.0 °F 5.0 °F 12.9 °F 77% 30.34 in 10.0 mi WSW 15.0 mph - N/A   Clear
9:53 PM 19.0 °F 7.5 °F 12.0 °F 74% 30.30 in 10.0 mi West 10.4 mph - N/A   Clear
10:53 PM 21.9 °F 10.4 °F 12.9 °F 68% 30.26 in 10.0 mi WSW 11.5 mph - N/A   Clear
11:53 PM 19.9 °F 6.2 °F 12.0 °F 71% 30.24 in 10.0 mi WSW 15.0 mph - N/A   Clear